This is the latest recevied weather packets stored in our database for station/object WB5CFT. If no packets are shown the sender has not sent any weather packets the latest 10 day(s).
| Time | Temp. | Humidity | Pressure | Rain* | Wind** | Luminosity | Snow |
|---|---|---|---|---|---|---|---|
| 1777442823 | 24.44° C | 17% | 1015 hPa | 0 mm | - | 0 W/m² | - |
| 1777442518 | 24.44° C | 18% | 1014.8 hPa | 0 mm | - | 0 W/m² | - |
| 1777442214 | 24.44° C | 15% | 1015 hPa | 0 mm | - | 0 W/m² | - |
| 1777441910 | 24.44° C | 16% | 1014.8 hPa | 0 mm | - | 0 W/m² | - |
| 1777441606 | 25° C | 16% | 1015 hPa | 0 mm | - | 0 W/m² | - |
| 1777441301 | 25° C | 15% | 1014.9 hPa | 0 mm | - | 0 W/m² | - |
| 1777440996 | 25.56° C | 15% | 1014.9 hPa | 0 mm | - | 0 W/m² | - |
| 1777440693 | 25.56° C | 14% | 1014.9 hPa | 0 mm | - | 0 W/m² | - |
| 1777440388 | 25° C | 15% | 1014.9 hPa | 0 mm | - | 0 W/m² | - |
| 1777440085 | 25° C | 16% | 1014.9 hPa | 0 mm | - | 0 W/m² | - |
| 1777439781 | 25.56° C | 15% | 1014.9 hPa | 0 mm | - | 0 W/m² | - |
| 1777439477 | 25.56° C | 14% | 1014.8 hPa | 0 mm | - | 0 W/m² | - |
| 1777439177 | 26.67° C | 14% | 1014.9 hPa | 0 mm | - | 0 W/m² | - |
| 1777438875 | 26.67° C | 14% | 1014.9 hPa | 0 mm | - | 0 W/m² | - |
| 1777438571 | 26.67° C | 13% | 1014.7 hPa | 0 mm | - | 0 W/m² | - |
| 1777438268 | 26.67° C | 13% | 1014.7 hPa | 0 mm | - | 0 W/m² | - |
| 1777437963 | 26.67° C | 13% | 1014.7 hPa | 0 mm | - | 0 W/m² | - |
| 1777437660 | 26.67° C | 13% | 1014.5 hPa | 0 mm | - | 0 W/m² | - |
| 1777437356 | 27.22° C | 13% | 1014.5 hPa | 0 mm | - | 0 W/m² | - |
| 1777437052 | 27.22° C | 13% | 1014.7 hPa | 0 mm | - | 0 W/m² | - |
| 1777436749 | 26.67° C | 13% | 1014.8 hPa | 0 mm | - | 0 W/m² | - |
| 1777436445 | 26.67° C | 13% | 1014.7 hPa | 0 mm | - | 0 W/m² | - |
| 1777436143 | 26.67° C | 13% | 1014.7 hPa | 0 mm | - | 0 W/m² | - |
| 1777435839 | 26.67° C | 13% | 1014.6 hPa | 0 mm | - | 0 W/m² | - |
| 1777435534 | 26.67° C | 13% | 1014.5 hPa | 0 mm | - | 0 W/m² | - |
* Rain latest hour (hover to see other rain measurements)
** Current wind speed in m/s (hover to see current wind gust speed)